owner,sensor,date,latitude,longitude,air_temperature,qcFlag 
TABS,ioos:station:wmo:42047:1,2015-12-01T00:00:00Z,27.8966,-93.5973,-0.2,11144222 
TABS,ioos:station:wmo:42047:1,2015-12-01T00:30:00Z,27.8966,-93.5973,-0.2,11144222 
TABS,ioos:station:wmo:42047:1,2015-12-01T01:00:00Z,27.8966,-93.5973,-0.7,11144222 
TABS,ioos:station:wmo:42047:1,2015-12-01T01:30:00Z,27.8966,-93.5973,-0.6,11144222 
TABS,ioos:station:wmo:42047:1,2015-12-01T02:00:00Z,27.8966,-93.5973,-0.7,11144222 
TABS,ioos:station:wmo:42047:1,2015-12-01T02:30:00Z,27.8966,-93.5973,-0.4,11144222 
TABS,ioos:station:wmo:42047:1,2015-12-01T03:00:00Z,27.8966,-93.5973,-0.3,11144222 
TABS,ioos:station:wmo:42047:1,2015-12-01T03:30:00Z,27.8966,-93.5973,-0.3,11144222 
TABS,ioos:station:wmo:42047:1,2015-12-01T04:00:00Z,27.8966,-93.5973,-0.2,11144222 
TABS,ioos:station:wmo:42047:1,2015-12-01T04:30:00Z,27.8966,-93.5973,0.0,11144222 
TABS,ioos:station:wmo:42047:1,2015-12-01T05:00:00Z,27.8966,-93.5973,-0.4,11144222 
TABS,ioos:station:wmo:42047:1,2015-12-01T05:30:00Z,27.8966,-93.5973,-0.8,11144222 
TABS,ioos:station:wmo:42047:1,2015-12-01T06:00:00Z,27.8966,-93.5973,-0.7,11144222 
TABS,ioos:station:wmo:42047:1,2015-12-01T06:30:00Z,27.8966,-93.5973,-0.9,11144222 
TABS,ioos:station:wmo:42047:1,2015-12-01T07:00:00Z,27.8966,-93.5973,-1.4,11144222 
TABS,ioos:station:wmo:42047:1,2015-12-01T07:30:00Z,27.8966,-93.5973,-1.1,11144222 
TABS,ioos:station:wmo:42047:1,2015-12-01T08:00:00Z,27.8966,-93.5973,-0.2,11144222 
TABS,ioos:station:wmo:42047:1,2015-12-01T08:30:00Z,27.8966,-93.5973,-1.3,11144222 
TABS,ioos:station:wmo:42047:1,2015-12-01T09:00:00Z,27.8966,-93.5973,-1.7,11144222 
TABS,ioos:station:wmo:42047:1,2015-12-01T09:30:00Z,27.8966,-93.5973,-1.3,11144222 
TABS,ioos:station:wmo:42047:1,2015-12-01T10:00:00Z,27.8966,-93.5973,-1.0,11144222 
TABS,ioos:station:wmo:42047:1,2015-12-01T10:30:00Z,27.8966,-93.5973,-0.9,11144222 
TABS,ioos:station:wmo:42047:1,2015-12-01T11:00:00Z,27.8966,-93.5973,0.1,11144222 
TABS,ioos:station:wmo:42047:1,2015-12-01T11:30:00Z,27.8966,-93.5973,1.2,11144222 
TABS,ioos:station:wmo:42047:1,2015-12-01T12:00:00Z,27.8966,-93.5973,1.0,11144222 
TABS,ioos:station:wmo:42047:1,2015-12-01T12:30:00Z,27.8966,-93.5973,1.4,11144222 
TABS,ioos:station:wmo:42047:1,2015-12-01T13:00:00Z,27.8966,-93.5973,1.2,11144222 
TABS,ioos:station:wmo:42047:1,2015-12-01T13:30:00Z,27.8966,-93.5973,1.5,11144222 
TABS,ioos:station:wmo:42047:1,2015-12-01T14:00:00Z,27.8966,-93.5973,1.4,11144222 
TABS,ioos:station:wmo:42047:1,2015-12-01T14:30:00Z,27.8966,-93.5973,1.8,11144222 
TABS,ioos:station:wmo:42047:1,2015-12-01T15:00:00Z,27.8966,-93.5973,1.9,11144222 
TABS,ioos:station:wmo:42047:1,2015-12-01T15:30:00Z,27.8966,-93.5973,2.7,11144222 
TABS,ioos:station:wmo:42047:1,2015-12-01T16:00:00Z,27.8966,-93.5973,3.1,11144222 
TABS,ioos:station:wmo:42047:1,2015-12-01T16:30:00Z,27.8966,-93.5973,2.6,11144222 
TABS,ioos:station:wmo:42047:1,2015-12-01T17:00:00Z,27.8966,-93.5973,3.0,11144222 
TABS,ioos:station:wmo:42047:1,2015-12-01T17:30:00Z,27.8966,-93.5973,0.9,11144222 
TABS,ioos:station:wmo:42047:1,2015-12-01T18:00:00Z,27.8966,-93.5973,-0.3,11144222 
TABS,ioos:station:wmo:42047:1,2015-12-01T18:30:00Z,27.8966,-93.5973,0.4,11144222 
TABS,ioos:station:wmo:42047:1,2015-12-01T19:00:00Z,27.8966,-93.5973,0.4,11144222 
TABS,ioos:station:wmo:42047:1,2015-12-01T19:30:00Z,27.8966,-93.5973,0.7,11144222 
TABS,ioos:station:wmo:42047:1,2015-12-01T20:00:00Z,27.8966,-93.5973,0.1,11144222 
TABS,ioos:station:wmo:42047:1,2015-12-01T20:30:00Z,27.8966,-93.5973,0.6,11144222 
TABS,ioos:station:wmo:42047:1,2015-12-01T21:00:00Z,27.8966,-93.5973,0.0,11144222 
TABS,ioos:station:wmo:42047:1,2015-12-01T21:30:00Z,27.8966,-93.5973,-0.8,11144222 
TABS,ioos:station:wmo:42047:1,2015-12-01T22:00:00Z,27.8966,-93.5973,-0.6,11144222 
TABS,ioos:station:wmo:42047:1,2015-12-01T22:30:00Z,27.8966,-93.5973,-0.3,11144222 
TABS,ioos:station:wmo:42047:1,2015-12-01T23:00:00Z,27.8966,-93.5973,-0.7,11144222 
TABS,ioos:station:wmo:42047:1,2015-12-01T23:30:00Z,27.8966,-93.5973,-1.1,11144222 
TABS,ioos:station:wmo:42047:1,2015-12-02T00:00:00Z,27.8966,-93.5973,-1.1,11144222 
TABS,ioos:station:wmo:42047:1,2015-12-02T00:30:00Z,27.8966,-93.5973,-1.0,11144222 
TABS,ioos:station:wmo:42047:1,2015-12-02T01:00:00Z,27.8966,-93.5973,-1.2,11144222 
TABS,ioos:station:wmo:42047:1,2015-12-02T01:30:00Z,27.8966,-93.5973,-0.9,11144222 
TABS,ioos:station:wmo:42047:1,2015-12-02T02:00:00Z,27.8966,-93.5973,-0.9,11144222 
TABS,ioos:station:wmo:42047:1,2015-12-02T02:30:00Z,27.8966,-93.5973,-0.8,11144222 
TABS,ioos:station:wmo:42047:1,2015-12-02T03:00:00Z,27.8966,-93.5973,-0.9,11144222 
TABS,ioos:station:wmo:42047:1,2015-12-02T03:30:00Z,27.8966,-93.5973,-0.7,11144222 
TABS,ioos:station:wmo:42047:1,2015-12-02T04:00:00Z,27.8966,-93.5973,-0.8,11144222 
TABS,ioos:station:wmo:42047:1,2015-12-02T04:30:00Z,27.8966,-93.5973,-0.6,11144222 
TABS,ioos:station:wmo:42047:1,2015-12-02T05:00:00Z,27.8966,-93.5973,-0.6,11144222 
TABS,ioos:station:wmo:42047:1,2015-12-02T05:30:00Z,27.8966,-93.5973,-0.6,11144222 
TABS,ioos:station:wmo:42047:1,2015-12-02T06:00:00Z,27.8966,-93.5973,-0.5,11144222 
TABS,ioos:station:wmo:42047:1,2015-12-02T06:30:00Z,27.8966,-93.5973,-0.4,11144222 
TABS,ioos:station:wmo:42047:1,2015-12-02T07:00:00Z,27.8966,-93.5973,-0.6,11144222 
TABS,ioos:station:wmo:42047:1,2015-12-02T07:30:00Z,27.8966,-93.5973,-0.9,11144222 
TABS,ioos:station:wmo:42047:1,2015-12-02T08:00:00Z,27.8966,-93.5973,-0.7,11144222 
TABS,ioos:station:wmo:42047:1,2015-12-02T08:30:00Z,27.8966,-93.5973,-1.5,11144222 
TABS,ioos:station:wmo:42047:1,2015-12-02T09:00:00Z,27.8966,-93.5973,-1.6,11144222 
TABS,ioos:station:wmo:42047:1,2015-12-02T09:30:00Z,27.8966,-93.5973,-1.5,11144222 
TABS,ioos:station:wmo:42047:1,2015-12-02T10:00:00Z,27.8966,-93.5973,-1.8,11144222 
TABS,ioos:station:wmo:42047:1,2015-12-02T10:30:00Z,27.8966,-93.5973,-1.8,11144222 
TABS,ioos:station:wmo:42047:1,2015-12-02T11:00:00Z,27.8966,-93.5973,-1.8,11144222 
TABS,ioos:station:wmo:42047:1,2015-12-02T11:30:00Z,27.8966,-93.5973,-2.4,11144222 
TABS,ioos:station:wmo:42047:1,2015-12-02T12:00:00Z,27.8966,-93.5973,-3.0,11144222 
TABS,ioos:station:wmo:42047:1,2015-12-02T12:30:00Z,27.8966,-93.5973,-3.7,11144222 
TABS,ioos:station:wmo:42047:1,2015-12-02T13:00:00Z,27.8966,-93.5973,-3.9,11144222 
TABS,ioos:station:wmo:42047:1,2015-12-02T13:30:00Z,27.8966,-93.5973,-3.8,11144222 
TABS,ioos:station:wmo:42047:1,2015-12-02T14:00:00Z,27.8966,-93.5973,-4.1,11144222 
TABS,ioos:station:wmo:42047:1,2015-12-02T14:30:00Z,27.8966,-93.5973,-4.5,11144222 
TABS,ioos:station:wmo:42047:1,2015-12-02T15:00:00Z,27.8966,-93.5973,-5.5,11144222 
TABS,ioos:station:wmo:42047:1,2015-12-02T15:30:00Z,27.8966,-93.5973,-5.4,11144222 
TABS,ioos:station:wmo:42047:1,2015-12-02T16:00:00Z,27.8966,-93.5973,-5.4,11144222 
TABS,ioos:station:wmo:42047:1,2015-12-02T16:30:00Z,27.8966,-93.5973,-5.9,11144222 
TABS,ioos:station:wmo:42047:1,2015-12-02T17:00:00Z,27.8966,-93.5973,-5.7,11144222 
TABS,ioos:station:wmo:42047:1,2015-12-02T17:30:00Z,27.8966,-93.5973,-4.2,11144222 
TABS,ioos:station:wmo:42047:1,2015-12-02T18:00:00Z,27.8966,-93.5973,-3.7,11144222 
TABS,ioos:station:wmo:42047:1,2015-12-02T18:30:00Z,27.8966,-93.5973,-3.6,11144222 
TABS,ioos:station:wmo:42047:1,2015-12-02T19:00:00Z,27.8966,-93.5973,-3.6,11144222 
TABS,ioos:station:wmo:42047:1,2015-12-02T19:30:00Z,27.8966,-93.5973,-2.9,11144222 
TABS,ioos:station:wmo:42047:1,2015-12-02T20:00:00Z,27.8966,-93.5973,-2.5,11144222 
TABS,ioos:station:wmo:42047:1,2015-12-02T20:30:00Z,27.8966,-93.5973,-3.0,11144222 
TABS,ioos:station:wmo:42047:1,2015-12-02T21:00:00Z,27.8966,-93.5973,-3.1,11144222 
TABS,ioos:station:wmo:42047:1,2015-12-02T21:30:00Z,27.8966,-93.5973,-3.0,11144222 
TABS,ioos:station:wmo:42047:1,2015-12-02T22:00:00Z,27.8966,-93.5973,-3.1,11144222 
TABS,ioos:station:wmo:42047:1,2015-12-02T22:30:00Z,27.8966,-93.5973,-3.4,11144222 
TABS,ioos:station:wmo:42047:1,2015-12-02T23:00:00Z,27.8966,-93.5973,-3.6,11144222 
TABS,ioos:station:wmo:42047:1,2015-12-02T23:30:00Z,27.8966,-93.5973,-3.3,11144222 
TABS,ioos:station:wmo:42047:1,2015-12-03T00:00:00Z,27.8966,-93.5973,-3.8,11144222 
TABS,ioos:station:wmo:42047:1,2015-12-03T00:30:00Z,27.8966,-93.5973,-3.9,11144222 
TABS,ioos:station:wmo:42047:1,2015-12-03T01:00:00Z,27.8966,-93.5973,-4.1,11144222 
TABS,ioos:station:wmo:42047:1,2015-12-03T01:30:00Z,27.8966,-93.5973,-3.8,11144222 
TABS,ioos:station:wmo:42047:1,2015-12-03T02:00:00Z,27.8966,-93.5973,-3.9,11144222 
TABS,ioos:station:wmo:42047:1,2015-12-03T02:30:00Z,27.8966,-93.5973,-4.0,11144222 
TABS,ioos:station:wmo:42047:1,2015-12-03T03:00:00Z,27.8966,-93.5973,-4.0,11144222 
TABS,ioos:station:wmo:42047:1,2015-12-03T03:30:00Z,27.8966,-93.5973,-4.2,11144222 
TABS,ioos:station:wmo:42047:1,2015-12-03T04:00:00Z,27.8966,-93.5973,-4.5,11144222 
TABS,ioos:station:wmo:42047:1,2015-12-03T04:30:00Z,27.8966,-93.5973,-4.4,11144222 
TABS,ioos:station:wmo:42047:1,2015-12-03T05:00:00Z,27.8966,-93.5973,-4.7,11144222 
TABS,ioos:station:wmo:42047:1,2015-12-03T05:30:00Z,27.8966,-93.5973,-5.1,11144222 
TABS,ioos:station:wmo:42047:1,2015-12-03T06:00:00Z,27.8966,-93.5973,-5.1,11144222 
TABS,ioos:station:wmo:42047:1,2015-12-03T06:30:00Z,27.8966,-93.5973,-5.2,11144222 
TABS,ioos:station:wmo:42047:1,2015-12-03T07:00:00Z,27.8966,-93.5973,-5.3,11144222 
TABS,ioos:station:wmo:42047:1,2015-12-03T07:30:00Z,27.8966,-93.5973,-5.2,11144222 
TABS,ioos:station:wmo:42047:1,2015-12-03T08:00:00Z,27.8966,-93.5973,-5.8,11144222 
TABS,ioos:station:wmo:42047:1,2015-12-03T08:30:00Z,27.8966,-93.5973,-5.8,11144222 
TABS,ioos:station:wmo:42047:1,2015-12-03T09:00:00Z,27.8966,-93.5973,-5.9,11144222 
TABS,ioos:station:wmo:42047:1,2015-12-03T09:30:00Z,27.8966,-93.5973,-5.7,11144222 
TABS,ioos:station:wmo:42047:1,2015-12-03T10:00:00Z,27.8966,-93.5973,-5.8,11144222 
TABS,ioos:station:wmo:42047:1,2015-12-03T10:30:00Z,27.8966,-93.5973,-6.0,11144222 
TABS,ioos:station:wmo:42047:1,2015-12-03T11:00:00Z,27.8966,-93.5973,-6.3,11144222 
TABS,ioos:station:wmo:42047:1,2015-12-03T11:30:00Z,27.8966,-93.5973,-6.3,11144222 
TABS,ioos:station:wmo:42047:1,2015-12-03T12:00:00Z,27.8966,-93.5973,-6.4,11144222 
TABS,ioos:station:wmo:42047:1,2015-12-03T12:30:00Z,27.8966,-93.5973,-6.6,11144222 
TABS,ioos:station:wmo:42047:1,2015-12-03T13:00:00Z,27.8966,-93.5973,-6.7,11144222 
TABS,ioos:station:wmo:42047:1,2015-12-03T13:30:00Z,27.8966,-93.5973,-6.9,11144222 
TABS,ioos:station:wmo:42047:1,2015-12-03T14:00:00Z,27.8966,-93.5973,-7.0,11144222 
TABS,ioos:station:wmo:42047:1,2015-12-03T14:30:00Z,27.8966,-93.5973,-6.8,11144222 
TABS,ioos:station:wmo:42047:1,2015-12-03T15:00:00Z,27.8966,-93.5973,-6.8,11144222 
TABS,ioos:station:wmo:42047:1,2015-12-03T15:30:00Z,27.8966,-93.5973,-6.6,11144222 
TABS,ioos:station:wmo:42047:1,2015-12-03T16:00:00Z,27.8966,-93.5973,-6.5,11144222 
TABS,ioos:station:wmo:42047:1,2015-12-03T16:30:00Z,27.8966,-93.5973,-5.9,11144222 
TABS,ioos:station:wmo:42047:1,2015-12-03T17:00:00Z,27.8966,-93.5973,-5.8,11144222 
TABS,ioos:station:wmo:42047:1,2015-12-03T17:30:00Z,27.8966,-93.5973,-5.2,11144222 
TABS,ioos:station:wmo:42047:1,2015-12-03T18:00:00Z,27.8966,-93.5973,-5.2,11144222 
TABS,ioos:station:wmo:42047:1,2015-12-03T18:30:00Z,27.8966,-93.5973,-5.1,11144222 
TABS,ioos:station:wmo:42047:1,2015-12-03T19:00:00Z,27.8966,-93.5973,-4.8,11144222 
TABS,ioos:station:wmo:42047:1,2015-12-03T19:30:00Z,27.8966,-93.5973,-5.1,11144222 
TABS,ioos:station:wmo:42047:1,2015-12-03T20:00:00Z,27.8966,-93.5973,-5.7,11144222 
TABS,ioos:station:wmo:42047:1,2015-12-03T20:30:00Z,27.8966,-93.5973,-5.5,11144222 
TABS,ioos:station:wmo:42047:1,2015-12-03T21:00:00Z,27.8966,-93.5973,-6.0,11144222 
TABS,ioos:station:wmo:42047:1,2015-12-03T21:30:00Z,27.8966,-93.5973,-5.7,11144222 
TABS,ioos:station:wmo:42047:1,2015-12-03T22:00:00Z,27.8966,-93.5973,-5.4,11144222 
TABS,ioos:station:wmo:42047:1,2015-12-03T22:30:00Z,27.8966,-93.5973,-4.9,11144222 
TABS,ioos:station:wmo:42047:1,2015-12-03T23:00:00Z,27.8966,-93.5973,-6.5,11144222 
TABS,ioos:station:wmo:42047:1,2015-12-03T23:30:00Z,27.8966,-93.5973,-7.0,11144222 
TABS,ioos:station:wmo:42047:1,2015-12-04T00:00:00Z,27.8966,-93.5973,-7.2,11144222 
TABS,ioos:station:wmo:42047:1,2015-12-04T00:30:00Z,27.8966,-93.5973,-6.8,11144222 
TABS,ioos:station:wmo:42047:1,2015-12-04T01:00:00Z,27.8966,-93.5973,-7.3,11144222 
TABS,ioos:station:wmo:42047:1,2015-12-04T01:30:00Z,27.8966,-93.5973,-7.0,11144222 
TABS,ioos:station:wmo:42047:1,2015-12-04T02:00:00Z,27.8966,-93.5973,-6.8,11144222 
TABS,ioos:station:wmo:42047:1,2015-12-04T02:30:00Z,27.8966,-93.5973,-6.7,11144222 
TABS,ioos:station:wmo:42047:1,2015-12-04T03:00:00Z,27.8966,-93.5973,-6.8,11144222 
TABS,ioos:station:wmo:42047:1,2015-12-04T03:30:00Z,27.8966,-93.5973,-6.7,11144222 
TABS,ioos:station:wmo:42047:1,2015-12-04T04:00:00Z,27.8966,-93.5973,-6.7,11144222 
TABS,ioos:station:wmo:42047:1,2015-12-04T04:30:00Z,27.8966,-93.5973,-6.7,11144222 
TABS,ioos:station:wmo:42047:1,2015-12-04T05:00:00Z,27.8966,-93.5973,-6.8,11144222 
TABS,ioos:station:wmo:42047:1,2015-12-04T05:30:00Z,27.8966,-93.5973,-6.9,11144222 
TABS,ioos:station:wmo:42047:1,2015-12-04T06:00:00Z,27.8966,-93.5973,-7.3,11144222 
TABS,ioos:station:wmo:42047:1,2015-12-04T06:30:00Z,27.8966,-93.5973,-7.2,11144222 
TABS,ioos:station:wmo:42047:1,2015-12-04T07:00:00Z,27.8966,-93.5973,-7.5,11144222 
TABS,ioos:station:wmo:42047:1,2015-12-04T07:30:00Z,27.8966,-93.5973,-7.4,11144222 
TABS,ioos:station:wmo:42047:1,2015-12-04T08:00:00Z,27.8966,-93.5973,-7.5,11144222 
TABS,ioos:station:wmo:42047:1,2015-12-04T08:30:00Z,27.8966,-93.5973,-7.6,11144222 
TABS,ioos:station:wmo:42047:1,2015-12-04T09:00:00Z,27.8966,-93.5973,-8.0,11144222 
TABS,ioos:station:wmo:42047:1,2015-12-04T09:30:00Z,27.8966,-93.5973,-8.4,11144222 
TABS,ioos:station:wmo:42047:1,2015-12-04T10:00:00Z,27.8966,-93.5973,-8.6,11144222 
TABS,ioos:station:wmo:42047:1,2015-12-04T10:30:00Z,27.8966,-93.5973,-8.3,11144222 
TABS,ioos:station:wmo:42047:1,2015-12-04T11:00:00Z,27.8966,-93.5973,-8.4,11144222 
TABS,ioos:station:wmo:42047:1,2015-12-04T11:30:00Z,27.8966,-93.5973,-8.5,11144222 
TABS,ioos:station:wmo:42047:1,2015-12-04T12:00:00Z,27.8966,-93.5973,-8.3,11144222 
TABS,ioos:station:wmo:42047:1,2015-12-04T12:30:00Z,27.8966,-93.5973,-7.8,11144222 
TABS,ioos:station:wmo:42047:1,2015-12-04T13:00:00Z,27.8966,-93.5973,-7.9,11144222 
TABS,ioos:station:wmo:42047:1,2015-12-04T13:30:00Z,27.8966,-93.5973,-7.8,11144222 
TABS,ioos:station:wmo:42047:1,2015-12-04T14:00:00Z,27.8966,-93.5973,-7.0,11144222 
TABS,ioos:station:wmo:42047:1,2015-12-04T14:30:00Z,27.8966,-93.5973,-6.1,11144222 
TABS,ioos:station:wmo:42047:1,2015-12-04T15:00:00Z,27.8966,-93.5973,-6.3,11144222 
TABS,ioos:station:wmo:42047:1,2015-12-04T15:30:00Z,27.8966,-93.5973,-4.9,11144222 
TABS,ioos:station:wmo:42047:1,2015-12-04T16:00:00Z,27.8966,-93.5973,-5.8,11144222 
TABS,ioos:station:wmo:42047:1,2015-12-04T16:30:00Z,27.8966,-93.5973,-5.3,11144222 
TABS,ioos:station:wmo:42047:1,2015-12-04T17:00:00Z,27.8966,-93.5973,-5.5,11144222 
TABS,ioos:station:wmo:42047:1,2015-12-04T17:30:00Z,27.8966,-93.5973,-4.3,11144222 
TABS,ioos:station:wmo:42047:1,2015-12-04T18:00:00Z,27.8966,-93.5973,-4.0,11144222 
TABS,ioos:station:wmo:42047:1,2015-12-04T18:30:00Z,27.8966,-93.5973,-4.7,11144222 
TABS,ioos:station:wmo:42047:1,2015-12-04T19:00:00Z,27.8966,-93.5973,-4.7,11144222 
TABS,ioos:station:wmo:42047:1,2015-12-04T19:30:00Z,27.8966,-93.5973,-4.6,11144222 
TABS,ioos:station:wmo:42047:1,2015-12-04T20:00:00Z,27.8966,-93.5973,-5.3,11144222 
TABS,ioos:station:wmo:42047:1,2015-12-04T20:30:00Z,27.8966,-93.5973,-1.7,11144222 
TABS,ioos:station:wmo:42047:1,2015-12-04T21:00:00Z,27.8966,-93.5973,-5.0,11144222 
TABS,ioos:station:wmo:42047:1,2015-12-04T21:30:00Z,27.8966,-93.5973,-4.9,11144222 
TABS,ioos:station:wmo:42047:1,2015-12-04T22:00:00Z,27.8966,-93.5973,-4.5,11144222 
TABS,ioos:station:wmo:42047:1,2015-12-04T22:30:00Z,27.8966,-93.5973,-5.0,11144222 
TABS,ioos:station:wmo:42047:1,2015-12-04T23:00:00Z,27.8966,-93.5973,-5.5,11144222 
TABS,ioos:station:wmo:42047:1,2015-12-04T23:30:00Z,27.8966,-93.5973,-6.7,11144222 
TABS,ioos:station:wmo:42047:1,2015-12-05T00:00:00Z,27.8966,-93.5973,-7.0,11144222 
TABS,ioos:station:wmo:42047:1,2015-12-05T00:30:00Z,27.8966,-93.5973,-7.0,11144222 
TABS,ioos:station:wmo:42047:1,2015-12-05T01:00:00Z,27.8966,-93.5973,-7.1,11144222 
TABS,ioos:station:wmo:42047:1,2015-12-05T01:30:00Z,27.8966,-93.5973,-6.7,11144222 
TABS,ioos:station:wmo:42047:1,2015-12-05T02:00:00Z,27.8966,-93.5973,-6.8,11144222 
TABS,ioos:station:wmo:42047:1,2015-12-05T02:30:00Z,27.8966,-93.5973,-6.8,11144222 
TABS,ioos:station:wmo:42047:1,2015-12-05T03:00:00Z,27.8966,-93.5973,-6.5,11144222 
TABS,ioos:station:wmo:42047:1,2015-12-05T03:30:00Z,27.8966,-93.5973,-6.4,11144222 
TABS,ioos:station:wmo:42047:1,2015-12-05T04:00:00Z,27.8966,-93.5973,-6.3,11144222 
TABS,ioos:station:wmo:42047:1,2015-12-05T04:30:00Z,27.8966,-93.5973,-6.0,11144222 
TABS,ioos:station:wmo:42047:1,2015-12-05T05:00:00Z,27.8966,-93.5973,-5.9,11144222 
TABS,ioos:station:wmo:42047:1,2015-12-05T05:30:00Z,27.8966,-93.5973,-5.8,11144222 
TABS,ioos:station:wmo:42047:1,2015-12-05T06:00:00Z,27.8966,-93.5973,-5.6,11144222 
TABS,ioos:station:wmo:42047:1,2015-12-05T06:30:00Z,27.8966,-93.5973,-5.8,11144222 
TABS,ioos:station:wmo:42047:1,2015-12-05T07:00:00Z,27.8966,-93.5973,-5.9,11144222 
TABS,ioos:station:wmo:42047:1,2015-12-05T07:30:00Z,27.8966,-93.5973,-5.5,11144222 
TABS,ioos:station:wmo:42047:1,2015-12-05T08:00:00Z,27.8966,-93.5973,-5.3,11144222 
TABS,ioos:station:wmo:42047:1,2015-12-05T08:30:00Z,27.8966,-93.5973,-5.4,11144222 
TABS,ioos:station:wmo:42047:1,2015-12-05T09:00:00Z,27.8966,-93.5973,-5.4,11144222 
TABS,ioos:station:wmo:42047:1,2015-12-05T09:30:00Z,27.8966,-93.5973,-5.3,11144222 
TABS,ioos:station:wmo:42047:1,2015-12-05T10:00:00Z,27.8966,-93.5973,-5.4,11144222 
TABS,ioos:station:wmo:42047:1,2015-12-05T10:30:00Z,27.8966,-93.5973,-5.3,11144222 
TABS,ioos:station:wmo:42047:1,2015-12-05T11:00:00Z,27.8966,-93.5973,-5.2,11144222 
TABS,ioos:station:wmo:42047:1,2015-12-05T11:30:00Z,27.8966,-93.5973,-5.1,11144222 
TABS,ioos:station:wmo:42047:1,2015-12-05T12:00:00Z,27.8966,-93.5973,-5.6,11144222 
TABS,ioos:station:wmo:42047:1,2015-12-05T12:30:00Z,27.8966,-93.5973,-5.4,11144222 
TABS,ioos:station:wmo:42047:1,2015-12-05T13:00:00Z,27.8966,-93.5973,-5.2,11144222 
TABS,ioos:station:wmo:42047:1,2015-12-05T13:30:00Z,27.8966,-93.5973,-4.8,11144222 
TABS,ioos:station:wmo:42047:1,2015-12-05T14:00:00Z,27.8966,-93.5973,-4.6,11144222 
TABS,ioos:station:wmo:42047:1,2015-12-05T14:30:00Z,27.8966,-93.5973,-3.8,11144222 
TABS,ioos:station:wmo:42047:1,2015-12-05T15:00:00Z,27.8966,-93.5973,-2.3,11144222 
TABS,ioos:station:wmo:42047:1,2015-12-05T15:30:00Z,27.8966,-93.5973,-1.6,11144222 
TABS,ioos:station:wmo:42047:1,2015-12-05T16:00:00Z,27.8966,-93.5973,-1.3,11144222 
TABS,ioos:station:wmo:42047:1,2015-12-05T16:30:00Z,27.8966,-93.5973,-2.6,11144222 
TABS,ioos:station:wmo:42047:1,2015-12-05T17:00:00Z,27.8966,-93.5973,-1.2,11144222 
TABS,ioos:station:wmo:42047:1,2015-12-05T17:30:00Z,27.8966,-93.5973,-1.1,11144222 
TABS,ioos:station:wmo:42047:1,2015-12-05T18:00:00Z,27.8966,-93.5973,-0.9,11144222 
TABS,ioos:station:wmo:42047:1,2015-12-05T18:30:00Z,27.8966,-93.5973,-0.9,11144222 
TABS,ioos:station:wmo:42047:1,2015-12-05T19:00:00Z,27.8966,-93.5973,-0.8,11144222 
TABS,ioos:station:wmo:42047:1,2015-12-05T19:30:00Z,27.8966,-93.5973,-0.7,11144222 
TABS,ioos:station:wmo:42047:1,2015-12-05T20:00:00Z,27.8966,-93.5973,-1.8,11144222 
TABS,ioos:station:wmo:42047:1,2015-12-05T20:30:00Z,27.8966,-93.5973,-1.0,11144222 
TABS,ioos:station:wmo:42047:1,2015-12-05T21:00:00Z,27.8966,-93.5973,-1.5,11144222 
TABS,ioos:station:wmo:42047:1,2015-12-05T21:30:00Z,27.8966,-93.5973,-1.3,11144222 
TABS,ioos:station:wmo:42047:1,2015-12-05T22:00:00Z,27.8966,-93.5973,-1.7,11144222 
TABS,ioos:station:wmo:42047:1,2015-12-05T22:30:00Z,27.8966,-93.5973,-2.1,11144222 
TABS,ioos:station:wmo:42047:1,2015-12-05T23:00:00Z,27.8966,-93.5973,-3.4,11144222 
TABS,ioos:station:wmo:42047:1,2015-12-05T23:30:00Z,27.8966,-93.5973,-3.9,11144222 
TABS,ioos:station:wmo:42047:1,2015-12-06T00:00:00Z,27.8966,-93.5973,-4.1,11144222 
TABS,ioos:station:wmo:42047:1,2015-12-06T00:30:00Z,27.8966,-93.5973,-4.6,11144222 
TABS,ioos:station:wmo:42047:1,2015-12-06T01:00:00Z,27.8966,-93.5973,-4.7,11144222 
TABS,ioos:station:wmo:42047:1,2015-12-06T01:30:00Z,27.8966,-93.5973,-4.4,11144222 
TABS,ioos:station:wmo:42047:1,2015-12-06T02:00:00Z,27.8966,-93.5973,-4.5,11144222 
TABS,ioos:station:wmo:42047:1,2015-12-06T02:30:00Z,27.8966,-93.5973,-4.3,11144222 
TABS,ioos:station:wmo:42047:1,2015-12-06T03:00:00Z,27.8966,-93.5973,-4.3,11144222 
TABS,ioos:station:wmo:42047:1,2015-12-06T03:30:00Z,27.8966,-93.5973,-4.1,11144222 
TABS,ioos:station:wmo:42047:1,2015-12-06T04:00:00Z,27.8966,-93.5973,-4.1,11144222 
TABS,ioos:station:wmo:42047:1,2015-12-06T04:30:00Z,27.8966,-93.5973,-4.0,11144222 
TABS,ioos:station:wmo:42047:1,2015-12-06T05:00:00Z,27.8966,-93.5973,-3.8,11144222 
TABS,ioos:station:wmo:42047:1,2015-12-06T05:30:00Z,27.8966,-93.5973,-3.7,11144222 
TABS,ioos:station:wmo:42047:1,2015-12-06T06:00:00Z,27.8966,-93.5973,-3.6,11144222 
TABS,ioos:station:wmo:42047:1,2015-12-06T06:30:00Z,27.8966,-93.5973,-3.3,11144222 
TABS,ioos:station:wmo:42047:1,2015-12-06T07:00:00Z,27.8966,-93.5973,-3.4,11144222 
TABS,ioos:station:wmo:42047:1,2015-12-06T07:30:00Z,27.8966,-93.5973,-3.3,11144222 
TABS,ioos:station:wmo:42047:1,2015-12-06T08:00:00Z,27.8966,-93.5973,-3.2,11144222 
TABS,ioos:station:wmo:42047:1,2015-12-06T08:30:00Z,27.8966,-93.5973,-3.0,11144222 
TABS,ioos:station:wmo:42047:1,2015-12-06T09:00:00Z,27.8966,-93.5973,-3.0,11144222 
TABS,ioos:station:wmo:42047:1,2015-12-06T09:30:00Z,27.8966,-93.5973,-2.8,11144222 
TABS,ioos:station:wmo:42047:1,2015-12-06T10:00:00Z,27.8966,-93.5973,-2.9,11144222 
TABS,ioos:station:wmo:42047:1,2015-12-06T10:30:00Z,27.8966,-93.5973,-3.0,11144222 
TABS,ioos:station:wmo:42047:1,2015-12-06T11:00:00Z,27.8966,-93.5973,-2.9,11144222 
TABS,ioos:station:wmo:42047:1,2015-12-06T11:30:00Z,27.8966,-93.5973,-2.9,11144222 
TABS,ioos:station:wmo:42047:1,2015-12-06T12:00:00Z,27.8966,-93.5973,-3.0,11144222 
TABS,ioos:station:wmo:42047:1,2015-12-06T12:30:00Z,27.8966,-93.5973,-3.0,11144222 
TABS,ioos:station:wmo:42047:1,2015-12-06T13:00:00Z,27.8966,-93.5973,-3.0,11144222 
TABS,ioos:station:wmo:42047:1,2015-12-06T13:30:00Z,27.8966,-93.5973,-3.1,11144222 
TABS,ioos:station:wmo:42047:1,2015-12-06T14:00:00Z,27.8966,-93.5973,-3.2,11144222 
TABS,ioos:station:wmo:42047:1,2015-12-06T14:30:00Z,27.8966,-93.5973,-3.0,11144222 
TABS,ioos:station:wmo:42047:1,2015-12-06T15:00:00Z,27.8966,-93.5973,-2.4,11144222 
TABS,ioos:station:wmo:42047:1,2015-12-06T15:30:00Z,27.8966,-93.5973,-2.1,11144222 
TABS,ioos:station:wmo:42047:1,2015-12-06T16:00:00Z,27.8966,-93.5973,-1.8,11144222 
TABS,ioos:station:wmo:42047:1,2015-12-06T16:30:00Z,27.8966,-93.5973,0.0,11144222 
TABS,ioos:station:wmo:42047:1,2015-12-06T17:00:00Z,27.8966,-93.5973,0.0,11144222 
TABS,ioos:station:wmo:42047:1,2015-12-06T17:30:00Z,27.8966,-93.5973,-0.4,11144222 
TABS,ioos:station:wmo:42047:1,2015-12-06T18:00:00Z,27.8966,-93.5973,-0.8,11144222 
TABS,ioos:station:wmo:42047:1,2015-12-06T18:30:00Z,27.8966,-93.5973,-0.8,11144222 
TABS,ioos:station:wmo:42047:1,2015-12-06T19:00:00Z,27.8966,-93.5973,-0.8,11144222 
TABS,ioos:station:wmo:42047:1,2015-12-06T19:30:00Z,27.8966,-93.5973,-1.1,11144222 
TABS,ioos:station:wmo:42047:1,2015-12-06T20:00:00Z,27.8966,-93.5973,-1.4,11144222 
TABS,ioos:station:wmo:42047:1,2015-12-06T20:30:00Z,27.8966,-93.5973,-1.3,11144222 
TABS,ioos:station:wmo:42047:1,2015-12-06T21:00:00Z,27.8966,-93.5973,-1.3,11144222 
TABS,ioos:station:wmo:42047:1,2015-12-06T21:30:00Z,27.8966,-93.5973,-2.1,11144222 
TABS,ioos:station:wmo:42047:1,2015-12-06T22:00:00Z,27.8966,-93.5973,-1.3,11144222 
TABS,ioos:station:wmo:42047:1,2015-12-06T22:30:00Z,27.8966,-93.5973,-2.4,11144222 
TABS,ioos:station:wmo:42047:1,2015-12-06T23:00:00Z,27.8966,-93.5973,-3.5,11144222 
TABS,ioos:station:wmo:42047:1,2015-12-06T23:30:00Z,27.8966,-93.5973,-3.9,11144222 